Simultaneous Nadir Overpasses (SNOs) Predictions

Prediction of SNOs between AQUA and METOP-C Satellite Orbit:

Table of predicted SNOs for the next 14.0 days since TLE Epoch: 10/24/2020
Index Date (AQUA) Time (AQUA) Lat,Lon (AQUA) SZA (AQUA ) Date (METOP-C) Time (METOP-C) Lat,Lon (METOP-C) SZA (METOP-C ) Distance(km) Time Diff (sec)
1 10/25/2020 10:27:53 -73.73,-162.52 94.02 10/25/2020 10:27:07 -73.72,-162.44 94.04 3.18 46
2 10/25/2020 11:17:21 73.78, 5.01 86.04 10/25/2020 11:17:45 73.77, 5.02 86.03 1.31 24
3 10/28/2020 06:02:08 -73.70, -96.03 93.10 10/28/2020 06:01:32 -73.69, -96.09 93.11 2.22 36
4 10/28/2020 06:51:37 73.80, 71.39 87.02 10/28/2020 06:52:09 73.80, 71.49 87.01 3.26 32
5 10/31/2020 01:36:23 -73.74, -29.67 92.14 10/31/2020 01:35:55 -73.72, -29.63 92.16 2.66 28
6 10/31/2020 02:25:51 73.79, 137.86 87.92 10/31/2020 02:26:33 73.77, 137.84 87.91 1.58 42
7 11/02/2020 20:20:58 73.00,-129.34 87.99 11/02/2020 20:19:53 72.92,-132.34 87.94 98.32 65
8 11/02/2020 21:10:38 -73.73, 36.78 91.26 11/02/2020 21:10:19 -73.74, 36.83 91.25 1.93 19
9 11/02/2020 22:00:06 73.78,-155.69 88.81 11/02/2020 22:00:57 73.80,-155.69 88.83 2.16 51
10 11/05/2020 15:55:20 73.37, -63.65 89.23 11/05/2020 15:54:10 73.29, -65.11 89.17 47.36 70
11 11/05/2020 16:44:53 -73.74, 103.21 90.39 11/05/2020 16:44:44 -73.71, 103.17 90.42 2.92 9
12 11/05/2020 17:34:21 73.78, -89.26 89.67 11/05/2020 17:35:22 73.77, -89.35 89.66 2.91 61
